| time (UTC) | temp F | wind direction | speed MPH | gust MPH | rain 1hr in | rain 24hr in | rain mn in | humidity % | barometer mb |
| 20260507103015 | 45 | 337 | 1.0 | 2.0 | 0.00 | 0.00 | 0.00 | 89 | 1009.6 |
| 20260507101516 | 45 | 337 | 1.0 | 1.0 | 0.00 | 0.00 | 0.00 | 89 | 1009.3 |
| 20260507100014 | 45 | 337 | 1.0 | 2.0 | 0.00 | 0.00 | 0.00 | 89 | 1009.3 |
| 20260507094515 | 45 | 315 | 2.0 | 2.0 | 0.00 | 0.00 | 0.00 | 89 | 1009.2 |
| 20260507093014 | 45 | 337 | 1.0 | 2.0 | 0.00 | 0.00 | 0.00 | 89 | 1008.9 |
| 20260507091515 | 45 | 337 | 1.0 | 3.0 | 0.00 | 0.00 | 0.00 | 89 | 1008.7 |
| 20260507090014 | 45 | 337 | 2.0 | 3.0 | 0.00 | 0.00 | 0.00 | 89 | 1008.3 |
| 20260507084517 | 45 | 337 | 2.0 | 3.0 | 0.00 | 0.00 | 0.00 | 89 | 1008.0 |
| 20260507083014 | 45 | 337 | 1.0 | 2.0 | 0.00 | 0.00 | 0.00 | 89 | 1008.0 |
| 20260507081514 | 45 | 337 | 1.0 | 2.0 | 0.00 | 0.00 | 0.00 | 89 | 1007.9 |
| 20260507080016 | 45 | 337 | 1.0 | 2.0 | 0.00 | 0.00 | 0.00 | 89 | 1007.6 |
| 20260507074515 | 45 | 337 | 2.0 | 4.0 | 0.00 | 0.00 | 0.00 | 89 | 1007.6 |
| 20260507073014 | 45 | 337 | 2.0 | 2.0 | 0.00 | 0.00 | 0.00 | 89 | 1007.2 |
| 20260507071515 | 45 | 337 | 1.0 | 2.0 | 0.00 | 0.00 | 0.00 | 89 | 1006.9 |
| 20260507070014 | 46 | 22 | 2.0 | 3.0 | 0.00 | 0.00 | 0.00 | 89 | 1006.8 |
| 20260507064514 | 46 | 337 | 1.0 | 3.0 | 0.00 | 0.00 | 0.00 | 89 | 1006.6 |
| 20260507063015 | 46 | 337 | 1.0 | 1.0 | 0.00 | 0.00 | 0.00 | 89 | 1006.7 |
| 20260507061515 | 47 | 337 | 1.0 | 1.0 | 0.00 | 0.00 | 0.00 | 89 | 1006.5 |
| 20260507060014 | 47 | 0 | 1.0 | 2.0 | 0.00 | 0.00 | 0.00 | 89 | 1006.0 |
| 20260507054514 | 47 | 0 | 1.0 | 2.0 | 0.00 | 0.00 | 0.00 | 89 | 1005.7 |
| 20260507053015 | 47 | 337 | 1.0 | 2.0 | 0.00 | 0.00 | 0.00 | 89 | 1005.5 |
| 20260507051514 | 47 | 22 | 1.0 | 3.0 | 0.00 | 0.00 | 0.00 | 89 | 1005.6 |
| 20260507050014 | 47 | 0 | 1.0 | 2.0 | 0.00 | 0.00 | 0.00 | 89 | 1005.5 |
| 20260507044514 | 48 | 22 | 1.0 | 2.0 | 0.00 | 0.00 | 0.00 | 89 | 1005.0 |
| 20260507043015 | 48 | 0 | 2.0 | 3.0 | 0.00 | 0.00 | 0.00 | 89 | 1004.8 |
| 20260507041516 | 48 | 337 | 0.0 | 1.0 | 0.00 | 0.00 | 0.00 | 89 | 1004.7 |
| 20260507040015 | 48 | 337 | 1.0 | 1.0 | 0.00 | 0.00 | 0.00 | 89 | 1004.6 |
| 20260507034515 | 48 | 22 | 1.0 | 2.0 | 0.00 | 0.00 | 0.00 | 89 | 1004.4 |
| 20260507033014 | 48 | 22 | 2.0 | 3.0 | 0.00 | 0.00 | 0.00 | 89 | 1004.5 |
| 20260507031515 | 49 | 0 | 1.0 | 2.0 | 0.00 | 0.00 | 0.00 | 89 | 1004.4 |
| 20260507030015 | 49 | 337 | 0.0 | 2.0 | 0.00 | 0.00 | 0.00 | 89 | 1004.1 |
| 20260507024515 | 49 | 0 | 1.0 | 3.0 | 0.00 | 0.00 | 0.00 | 89 | 1004.3 |
| 20260507023014 | 49 | 22 | 1.0 | 2.0 | 0.00 | 0.00 | 0.00 | 89 | 1004.3 |
| 20260507021515 | 50 | 0 | 2.0 | 3.0 | 0.00 | 0.00 | 0.00 | 89 | 1004.1 |
| 20260507020014 | 50 | 0 | 1.0 | 2.0 | 0.00 | 0.00 | 0.00 | 89 | 1004.0 |
| 20260507014516 | 50 | 22 | 1.0 | 2.0 | 0.00 | 0.00 | 0.00 | 88 | 1004.0 |
| 20260507013015 | 50 | 337 | 1.0 | 2.0 | 0.00 | 0.00 | 0.00 | 88 | 1004.1 |
| 20260507011514 | 50 | 337 | 1.0 | 2.0 | 0.00 | 0.00 | 0.00 | 88 | 1003.9 |
| 20260507010014 | 50 | 0 | 1.0 | 2.0 | 0.00 | 0.00 | 0.00 | 88 | 1003.9 |
| 20260507004514 | 50 | 0 | 1.0 | 3.0 | 0.00 | 0.00 | 0.00 | 88 | 1003.8 |
| 20260507003014 | 51 | 0 | 1.0 | 1.0 | 0.00 | 0.00 | 0.00 | 88 | 1004.0 |
| 20260507001514 | 51 | 337 | 0.0 | 1.0 | 0.00 | 0.00 | 0.00 | 88 | 1003.6 |
| 20260507000014 | 51 | 0 | 0.0 | 1.0 | 0.00 | 0.00 | 0.00 | 88 | 1003.7 |
| 20260506234515 | 51 | 337 | 1.0 | 1.0 | 0.00 | 0.00 | 0.00 | 88 | 1003.7 |
| 20260506233014 | 52 | 337 | 0.0 | 1.0 | 0.00 | 0.00 | 0.00 | 88 | 1003.5 |
| 20260506231515 | 52 | 337 | 1.0 | 1.0 | 0.00 | 0.00 | 0.00 | 88 | 1003.8 |
| 20260506230014 | 52 | 337 | 0.0 | 1.0 | 0.00 | 0.00 | 0.00 | 88 | 1003.5 |
| 20260506224514 | 52 | 337 | 1.0 | 1.0 | 0.00 | 0.00 | 0.00 | 88 | 1003.3 |
| 20260506223014 | 52 | 337 | 1.0 | 2.0 | 0.00 | 0.00 | 0.00 | 88 | 1003.5 |
| 20260506221515 | 52 | 0 | 1.0 | 2.0 | 0.00 | 0.00 | 0.00 | 87 | 1003.3 |
| 20260506220014 | 52 | 337 | 1.0 | 2.0 | 0.00 | 0.00 | 0.00 | 88 | 1003.1 |
| 20260506214514 | 53 | 337 | 1.0 | 1.0 | 0.00 | 0.00 | 0.00 | 88 | 1003.1 |
| 20260506213014 | 53 | 0 | 1.0 | 2.0 | 0.00 | 0.00 | 0.00 | 87 | 1002.8 |
| 20260506211514 | 53 | 22 | 2.0 | 4.0 | 0.00 | 0.00 | 0.00 | 88 | 1003.0 |
| 20260506210014 | 53 | 337 | 1.0 | 1.0 | 0.00 | 0.00 | 0.00 | 88 | 1002.8 |
| 20260506204514 | 53 | 337 | 1.0 | 2.0 | 0.00 | 0.00 | 0.00 | 88 | 1002.7 |
| 20260506203015 | 53 | 247 | 1.0 | 2.0 | 0.00 | 0.00 | 0.00 | 88 | 1002.7 |
| 20260506201514 | 54 | 247 | 0.0 | 0.0 | 0.00 | 0.00 | 0.00 | 88 | 1002.8 |
| 20260506200014 | 54 | 247 | 0.0 | 0.0 | 0.00 | 0.00 | 0.00 | 88 | 1002.6 |
| 20260506194514 | 54 | 112 | 0.0 | 0.0 | 0.00 | 0.00 | 0.00 | 88 | 1002.6 |
| 20260506193014 | 54 | 337 | 0.0 | 1.0 | 0.00 | 0.00 | 0.00 | 88 | 1002.4 |
| 20260506191514 | 54 | 337 | 1.0 | 2.0 | 0.00 | 0.00 | 0.00 | 88 | 1002.0 |
| 20260506190013 | 55 | 337 | 0.0 | 1.0 | 0.00 | 0.00 | 0.00 | 87 | 1002.0 |
| 20260506184514 | 55 | 112 | 0.0 | 1.0 | 0.00 | 0.00 | 0.00 | 87 | 1001.9 |
| 20260506183014 | 55 | 22 | 1.0 | 2.0 | 0.00 | 0.00 | 0.00 | 86 | 1001.5 |
| 20260506181514 | 56 | 315 | 1.0 | 1.0 | 0.00 | 0.00 | 0.00 | 87 | 1001.5 |
| 20260506180013 | 56 | 22 | 1.0 | 2.0 | 0.00 | 0.00 | 0.00 | 87 | 1001.2 |
| 20260506174515 | 56 | 337 | 0.0 | 2.0 | 0.00 | 0.00 | 0.00 | 86 | 1001.1 |
| 20260506173015 | 57 | 315 | 1.0 | 1.0 | 0.00 | 0.00 | 0.00 | 86 | 1001.1 |
| 20260506171514 | 57 | 337 | 1.0 | 2.0 | 0.00 | 0.00 | 0.00 | 86 | 1000.9 |
| 20260506170014 | 58 | 337 | 1.0 | 2.0 | 0.00 | 0.00 | 0.00 | 85 | 1001.3 |
| 20260506164519 | 58 | 337 | 3.0 | 6.0 | 0.00 | 0.00 | 0.00 | 84 | 1001.0 |
| 20260506163014 | 59 | 337 | 1.0 | 2.0 | 0.00 | 0.00 | 0.00 | 82 | 1000.8 |
| 20260506161514 | 61 | 292 | 0.0 | 1.0 | 0.00 | 0.00 | 0.00 | 75 | 1000.9 |
| 20260506160015 | 61 | 315 | 1.0 | 2.0 | 0.00 | 0.00 | 0.00 | 73 | 1000.8 |
| 20260506154514 | 62 | 337 | 1.0 | 2.0 | 0.00 | 0.00 | 0.00 | 74 | 1000.7 |
| 20260506153014 | 62 | 22 | 1.0 | 2.0 | 0.00 | 0.00 | 0.00 | 73 | 1000.7 |
| 20260506151514 | 63 | 0 | 1.0 | 1.0 | 0.00 | 0.00 | 0.00 | 71 | 1000.5 |
| 20260506150014 | 64 | 337 | 1.0 | 2.0 | 0.00 | 0.00 | 0.00 | 67 | 1000.7 |
| 20260506144515 | 65 | 22 | 1.0 | 3.0 | 0.00 | 0.00 | 0.00 | 64 | 1000.7 |
| 20260506143014 | 64 | 337 | 2.0 | 4.0 | 0.00 | 0.00 | 0.00 | 68 | 1000.9 |
| 20260506141513 | 63 | 337 | 0.0 | 1.0 | 0.00 | 0.00 | 0.00 | 70 | 1000.7 |
| 20260506140014 | 64 | 22 | 1.0 | 2.0 | 0.00 | 0.00 | 0.00 | 69 | 1000.8 |
| 20260506134514 | 64 | 22 | 2.0 | 4.0 | 0.00 | 0.00 | 0.00 | 67 | 1001.1 |
| 20260506133014 | 64 | 45 | 1.0 | 2.0 | 0.00 | 0.00 | 0.00 | 69 | 1000.9 |
| 20260506131515 | 64 | 45 | 1.0 | 2.0 | 0.00 | 0.00 | 0.00 | 69 | 1001.2 |
| 20260506130014 | 63 | 292 | 1.0 | 2.0 | 0.00 | 0.00 | 0.00 | 70 | 1001.2 |
| 20260506124513 | 62 | 270 | 1.0 | 1.0 | 0.00 | 0.00 | 0.00 | 70 | 1001.2 |
| 20260506123014 | 61 | 247 | 0.0 | 1.0 | 0.00 | 0.00 | 0.00 | 74 | 1001.3 |
| 20260506121516 | 62 | 247 | 2.0 | 3.0 | 0.00 | 0.00 | 0.00 | 70 | 1001.3 |
| 20260506120014 | 67 | 225 | 0.0 | 0.0 | 0.00 | 0.00 | 0.00 | 61 | 1001.0 |
| 20260506114514 | 67 | 180 | 0.0 | 0.0 | 0.00 | 0.00 | 0.00 | 59 | 1001.1 |
| 20260506113013 | 65 | 225 | 0.0 | 1.0 | 0.00 | 0.00 | 0.00 | 63 | 1001.1 |
| 20260506111514 | 64 | 247 | 0.0 | 1.0 | 0.00 | 0.00 | 0.00 | 65 | 1001.2 |
| 20260506110014 | 62 | 247 | 0.0 | 1.0 | 0.00 | 0.00 | 0.00 | 68 | 1001.3 |
| 20260506104513 | 62 | 225 | 0.0 | 1.0 | 0.00 | 0.00 | 0.00 | 68 | 1001.3 |